Weather History for Juneau, AK

Change the Weather History Date:

Sunday, June 3, 2012

  Actual Average Record
Temperature  
Mean Temperature 50 °F 53 °F  
Max Temperature 58 °F 61 °F 79 °F (1954)
Min Temperature 41 °F 45 °F 31 °F (1971)
Degree Days  
Heating Degree Days 15 12  
Month to date heating degree days 48 36  
Since 1 June heating degree days 48 36  
Since 1 July heating degree days 8232 8072  
Cooling Degree Days 0 0  
Month to date cooling degree days 0 0  
Year to date cooling degree days 0 0  
Since 1 June cooling degree days 0 0  
Moisture  
Dew Point 41 °F    
Average Humidity 78    
Maximum Humidity 100    
Minimum Humidity 55    
Precipitation  
Precipitation 0.01 in 0.11 in 1.01 in (2006)
Month to date precipitation 0.38 0.32  
Year to date precipitation 20.14 19.92  
Sea Level Pressure  
Sea Level Pressure 29.99 in    
Wind  
Wind Speed 6 mph (WSW)    
Max Wind Speed 15 mph    
Max Gust Speed 16 mph    
Visibility 10 miles    
Events Rain    
T = Trace of Precipitation, MM = Missing Value Source: NWS Daily Summary

Daily Weather History Graph

Daily Weather History Graph

Search for Another Location

Airport:

Trip Planner

Search our weather history database for the weather conditions in past years. The results will help you decide how hot, cold, wet, or windy it might be!

Date:

Astronomy

Jun. 03, 2012 Rise Set
Actual Time 3:59 AM AKDT 9:54 PM AKDT
Civil Twilight 2:48 AM AKDT 11:06 PM AKDT
Nautical Twilight 1:28 AM AKDT Sun does not rise
Astronomical Twilight Sun does not rise Sun does not rise
Moon 9:23 PM AKDT (6/3) 3:26 AM AKDT (6/3)
Length of Visible Light 20h 18m
Length of Day
17h 55m
Waxing Gibbous, 99% of the Moon is Illuminated
Jun 3
Waxing Gibbous
Jun 4
Full
Jun 11
Last Quarter
Jun 19
New
Jun 26
First Quarter

Hourly Weather History & Observations

Time (AKDT) Temp. Dew Point Humidity Pressure Visibility Wind Dir Wind Speed Gust Speed Precip Events Conditions
12:53 AM 44.1 °F 42.1 °F 93% 29.96 in 10.0 mi Calm Calm - 0.00 in   Overcast
1:53 AM 44.1 °F 43.0 °F 96% 29.96 in 10.0 mi Calm Calm - 0.01 in   Overcast
2:53 AM 43.0 °F 42.1 °F 97% 29.97 in 10.0 mi Calm Calm - N/A   Overcast
3:53 AM 43.0 °F 43.0 °F 100% 29.97 in 10.0 mi Calm Calm - 0.00 in Rain Light Rain
4:53 AM 41.0 °F 39.9 °F 96% 29.97 in 10.0 mi Calm Calm - 0.00 in   Scattered Clouds
5:37 AM 42.8 °F 41.0 °F 93% 29.97 in 10.0 mi Calm Calm - N/A   Scattered Clouds
5:53 AM 42.1 °F 42.1 °F 100% 29.98 in 10.0 mi Calm Calm - N/A   Scattered Clouds
6:53 AM 44.1 °F 42.1 °F 93% 29.98 in 10.0 mi Calm Calm - N/A   Scattered Clouds
7:53 AM 48.0 °F 42.1 °F 80% 29.98 in 10.0 mi WSW 4.6 mph - N/A   Scattered Clouds
8:53 AM 50.0 °F 42.1 °F 74% 29.99 in 10.0 mi SW 4.6 mph - N/A   Scattered Clouds
9:53 AM 50.0 °F 43.0 °F 77% 29.99 in 10.0 mi SW 8.1 mph - N/A   Mostly Cloudy
10:53 AM 52.0 °F 45.0 °F 77% 29.99 in 10.0 mi SW 11.5 mph - N/A   Mostly Cloudy
11:53 AM 53.1 °F 43.0 °F 69% 29.99 in 10.0 mi SW 11.5 mph - N/A   Mostly Cloudy
12:53 PM 54.0 °F 43.0 °F 66% 29.99 in 10.0 mi SW 12.7 mph - N/A   Mostly Cloudy
1:53 PM 55.0 °F 41.0 °F 59% 29.99 in 10.0 mi SW 12.7 mph - N/A   Mostly Cloudy
2:53 PM 55.9 °F 39.0 °F 53% 29.98 in 10.0 mi SW 13.8 mph - N/A   Mostly Cloudy
3:53 PM 57.9 °F 37.9 °F 47% 29.98 in 10.0 mi WSW 12.7 mph - N/A   Mostly Cloudy
4:53 PM 57.9 °F 39.0 °F 49% 29.99 in 10.0 mi SW 11.5 mph - N/A   Mostly Cloudy
5:53 PM 59.0 °F 37.0 °F 44% 29.99 in 10.0 mi West 9.2 mph - N/A   Mostly Cloudy
6:53 PM 57.0 °F 37.9 °F 49% 29.99 in 10.0 mi West 8.1 mph - N/A   Mostly Cloudy
7:53 PM 55.9 °F 39.0 °F 53% 29.99 in 10.0 mi WSW 6.9 mph - N/A   Mostly Cloudy
8:53 PM 55.0 °F 39.0 °F 55% 30.01 in 10.0 mi West 4.6 mph - N/A   Mostly Cloudy
9:53 PM 52.0 °F 41.0 °F 66% 30.02 in 10.0 mi North 3.5 mph - N/A   Overcast
10:53 PM 51.1 °F 43.0 °F 74% 30.03 in 10.0 mi Calm Calm - 0.00 in Rain Light Rain
11:53 PM 48.0 °F 44.1 °F 86% 30.04 in 10.0 mi Calm Calm - 0.00 in Rain Light Rain